Weather History for Hayden, CO

Change the Weather History Date:

Tuesday, August 20, 2013

  Actual Average Record
Temperature  
Mean Temperature 70 °F -  
Max Temperature 84 °F 80 °F 91 °F (1982)
Min Temperature 55 °F 48 °F 32 °F (1964)
Cooling Degree Days 4    
Growing Degree Days 20 (Base 50)    
Moisture  
Dew Point 38 °F    
Average Humidity 34    
Maximum Humidity 52    
Minimum Humidity 19    
Precipitation  
Precipitation 0.00 in - - ()
Sea Level Pressure  
Sea Level Pressure 30.24 in    
Wind  
Wind Speed 9 mph (SE)    
Max Wind Speed 21 mph    
Max Gust Speed 29 mph    
Visibility 10 miles    
Events      
Averages and records for this station are not official NWS values.
T = Trace of Precipitation, MM = Missing Value Source: NWS Daily Summary

Daily Weather History Graph

Daily Weather History Graph

Search for Another Location

Airport:

Trip Planner

Search our weather history database for the weather conditions in past years. The results will help you decide how hot, cold, wet, or windy it might be!

Date:

Astronomy

Aug. 20, 2013 Rise Set
Actual Time 6:24 AM MDT 7:58 PM MDT
Civil Twilight 5:55 AM MDT 8:27 PM MDT
Nautical Twilight 5:21 AM MDT 9:02 PM MDT
Astronomical Twilight 4:44 AM MDT 9:38 PM MDT
Moon 7:31 PM MDT (8/20) 5:58 AM MDT (8/20)
Length of Visible Light 14h 31m
Length of Day
13h 34m
Full, 100% of the Moon is Illuminated
Aug 20
Full
Aug 20
Full
Aug 28
Last Quarter
Sep 5
New
Sep 12
First Quarter

Hourly Weather History & Observations

Time (MDT) Temp. Dew Point Humidity Pressure Visibility Wind Dir Wind Speed Gust Speed Precip Events Conditions
12:15 AM 62.6 °F 32.0 °F 32% 30.21 in 10.0 mi East 10.4 mph - N/A   Clear
12:35 AM 62.6 °F 33.8 °F 34% 30.22 in 10.0 mi East 9.2 mph - N/A   Clear
12:55 AM 59.0 °F 33.8 °F 39% 30.23 in 10.0 mi East 9.2 mph - N/A   Clear
1:15 AM 62.6 °F 35.6 °F 37% 30.23 in 10.0 mi ESE 9.2 mph - N/A   Clear
1:35 AM 60.8 °F 33.8 °F 36% 30.23 in 10.0 mi East 6.9 mph - N/A   Clear
1:55 AM 60.8 °F 33.8 °F 36% 30.24 in 10.0 mi ESE 5.8 mph - N/A   Clear
2:15 AM 59.0 °F 35.6 °F 42% 30.24 in 10.0 mi ESE 9.2 mph - N/A   Clear
2:35 AM 57.2 °F 33.8 °F 41% 30.24 in 10.0 mi East 8.1 mph - N/A   Clear
2:55 AM 57.2 °F 33.8 °F 41% 30.24 in 10.0 mi ESE 8.1 mph - N/A   Clear
3:15 AM 59.0 °F 35.6 °F 42% 30.24 in 10.0 mi East 8.1 mph - N/A   Clear
3:35 AM 57.2 °F 33.8 °F 41% 30.24 in 10.0 mi SE 9.2 mph - N/A   Clear
3:55 AM 57.2 °F 33.8 °F 41% 30.25 in 10.0 mi SE 6.9 mph - N/A   Clear
4:15 AM 57.2 °F 33.8 °F 41% 30.25 in 10.0 mi East 5.8 mph - N/A   Clear
4:35 AM 55.4 °F 35.6 °F 47% 30.25 in 10.0 mi SE 5.8 mph - N/A   Clear
4:55 AM 57.2 °F 35.6 °F 44% 30.25 in 10.0 mi ESE 8.1 mph - N/A   Clear
5:15 AM 55.4 °F 35.6 °F 47% 30.25 in 10.0 mi East 4.6 mph - N/A   Clear
5:35 AM 57.2 °F 35.6 °F 44% 30.25 in 10.0 mi ESE 9.2 mph - N/A   Clear
5:55 AM 57.2 °F 35.6 °F 44% 30.25 in 10.0 mi ESE 10.4 mph - N/A   Clear
6:15 AM 55.4 °F 35.6 °F 47% 30.26 in 10.0 mi ESE 10.4 mph - N/A   Clear
6:35 AM 55.4 °F 35.6 °F 47% 30.27 in 10.0 mi East 11.5 mph - N/A   Clear
6:55 AM 57.2 °F 35.6 °F 44% 30.27 in 10.0 mi ESE 11.5 mph - N/A   Clear
7:15 AM 57.2 °F 35.6 °F 44% 30.27 in 10.0 mi ESE 12.7 mph - N/A   Clear
7:35 AM 59.0 °F 35.6 °F 42% 30.28 in 10.0 mi East 9.2 mph - N/A   Clear
7:55 AM 60.8 °F 35.6 °F 39% 30.28 in 10.0 mi ESE 10.4 mph - N/A   Clear
8:15 AM 62.6 °F 35.6 °F 37% 30.28 in 10.0 mi ESE 9.2 mph - N/A   Clear
8:35 AM 62.6 °F 37.4 °F 39% 30.28 in 10.0 mi ESE 13.8 mph - N/A   Clear
8:55 AM 64.4 °F 37.4 °F 37% 30.28 in 10.0 mi East 13.8 mph - N/A   Clear
9:15 AM 66.2 °F 37.4 °F 35% 30.28 in 10.0 mi ESE 10.4 mph - N/A   Clear
9:35 AM 69.8 °F 39.2 °F 33% 30.27 in 10.0 mi ESE 9.2 mph - N/A   Clear
9:55 AM 71.6 °F 39.2 °F 31% 30.27 in 10.0 mi East 4.6 mph - N/A   Clear
10:15 AM 73.4 °F 39.2 °F 29% 30.27 in 10.0 mi ESE 5.8 mph - N/A   Clear
10:35 AM 75.2 °F 41.0 °F 29% 30.27 in 10.0 mi Calm Calm - N/A   Clear
10:55 AM 78.8 °F 39.2 °F 24% 30.26 in 10.0 mi Calm Calm - N/A   Clear
11:15 AM 78.8 °F 39.2 °F 24% 30.26 in 10.0 mi West 5.8 mph - N/A   Clear
11:35 AM 80.6 °F 39.2 °F 23% 30.25 in 10.0 mi West 4.6 mph - N/A   Clear
11:55 AM 80.6 °F 39.2 °F 23% 30.25 in 10.0 mi WSW 5.8 mph - N/A   Clear
12:15 PM 80.6 °F 37.4 °F 21% 30.24 in 10.0 mi WNW 8.1 mph - N/A   Clear
12:35 PM 82.4 °F 37.4 °F 20% 30.23 in 10.0 mi NNW 6.9 mph - N/A   Clear
12:55 PM 84.2 °F 39.2 °F 20% 30.22 in 10.0 mi WSW 4.6 mph - N/A   Clear
1:15 PM 84.2 °F 39.2 °F 20% 30.21 in 10.0 mi WNW 6.9 mph - N/A   Clear
1:35 PM 84.2 °F 37.4 °F 19% 30.21 in 7.0 mi Calm Calm - N/A   Clear
1:55 PM 84.2 °F 37.4 °F 19% 30.21 in 10.0 mi West 4.6 mph - N/A   Clear
2:15 PM 84.2 °F 37.4 °F 19% 30.21 in 10.0 mi West 9.2 mph 17.3 mph N/A   Clear
2:35 PM 82.4 °F 39.2 °F 21% 30.21 in 10.0 mi SSW 17.3 mph 21.9 mph N/A   Clear
2:55 PM 82.4 °F 39.2 °F 21% 30.21 in 10.0 mi South 15.0 mph 23.0 mph N/A   Clear
3:15 PM 82.4 °F 37.4 °F 20% 30.21 in 10.0 mi South 18.4 mph 28.8 mph N/A   Clear
3:35 PM 80.6 °F 37.4 °F 21% 30.20 in 10.0 mi South 20.7 mph 27.6 mph N/A   Clear
3:55 PM 80.6 °F 37.4 °F 21% 30.20 in 10.0 mi SSE 18.4 mph 25.3 mph N/A   Clear
4:15 PM 77.0 °F 41.0 °F 28% 30.21 in 10.0 mi SW 20.7 mph 28.8 mph N/A   Clear
4:35 PM 75.2 °F 42.8 °F 31% 30.21 in 10.0 mi SW 17.3 mph - N/A   Clear
4:55 PM 78.8 °F 42.8 °F 28% 30.20 in 10.0 mi SSW 13.8 mph 19.6 mph N/A   Clear
5:15 PM 80.6 °F 39.2 °F 23% 30.20 in 10.0 mi SSW 12.7 mph 20.7 mph N/A   Clear
5:35 PM 80.6 °F 37.4 °F 21% 30.20 in 10.0 mi SSW 9.2 mph - N/A   Clear
5:55 PM 78.8 °F 39.2 °F 24% 30.20 in 10.0 mi NNE 5.8 mph - N/A   Clear
6:15 PM 78.8 °F 39.2 °F 24% 30.20 in 10.0 mi WNW 5.8 mph - N/A   Partly Cloudy
6:35 PM 77.0 °F 42.8 °F 29% 30.22 in 10.0 mi SE 12.7 mph 18.4 mph N/A   Mostly Cloudy
6:55 PM 75.2 °F 41.0 °F 29% 30.21 in 10.0 mi SSE 20.7 mph - N/A   Scattered Clouds
7:15 PM 75.2 °F 41.0 °F 29% 30.22 in 10.0 mi SSE 19.6 mph - N/A   Clear
7:35 PM 75.2 °F 39.2 °F 27% 30.22 in 10.0 mi SSE 15.0 mph - N/A   Clear
7:55 PM 73.4 °F 39.2 °F 29% 30.23 in 10.0 mi SE 8.1 mph - N/A   Scattered Clouds
8:15 PM 73.4 °F 41.0 °F 31% 30.24 in 10.0 mi East 8.1 mph - N/A   Overcast
8:35 PM 71.6 °F 42.8 °F 35% 30.24 in 10.0 mi East 10.4 mph - N/A   Overcast
8:55 PM 71.6 °F 42.8 °F 35% 30.25 in 10.0 mi East 12.7 mph - N/A   Mostly Cloudy
9:15 PM 71.6 °F 42.8 °F 35% 30.26 in 10.0 mi ESE 11.5 mph - N/A   Overcast
9:35 PM 69.8 °F 42.8 °F 38% 30.27 in 10.0 mi ESE 8.1 mph - N/A   Overcast
9:55 PM 69.8 °F 42.8 °F 38% 30.28 in 10.0 mi WSW 3.5 mph - N/A   Scattered Clouds
10:35 PM 68.0 °F 46.4 °F 46% 30.29 in 10.0 mi West 4.6 mph - N/A   Clear
10:55 PM 66.2 °F 48.2 °F 52% 30.28 in 10.0 mi West 8.1 mph - N/A   Clear
11:15 PM 66.2 °F 48.2 °F 52% 30.28 in 10.0 mi West 4.6 mph - N/A   Clear
11:35 PM 66.2 °F 48.2 °F 52% 30.27 in 10.0 mi WNW 8.1 mph - N/A   Clear
11:55 PM 64.4 °F 46.4 °F 52% 30.28 in 10.0 mi SW 3.5 mph - N/A   Partly Cloudy